Вернуться в каталог

STARLINK-34887

АктивенСвязьVLEO
NORAD 65103·PAYLOAD·🇺🇸 United States

Запущен Aug 4, 2025 с Cape Canaveral Space Force Station

Loading…

Ближайшие Пролёты (ближайшие 24 часа)

TLE

СвежийSource: CelesTrak SupGP

Эпоха: Sep 14, 2026, 21:08 UTC

1 65103C 25167AB  26257.88104167  .00039164  00000+0  11569-2 0  2576
2 65103  53.1583 224.1587 0001385  89.5477  80.7509 15.34375681    11

Отслеживайте STARLINK-34887 в реальном времени с AllMySat

Download on the App Store